Overview Statistics Trail Chart Weather Telemetry Raw packets
 

This is the latest recevied weather packets stored in our database for station/object N1JOV-7. If no packets are shown the sender has not sent any weather packets the latest 10 day(s).

<< 54 55 56 57 58 >>
Time Temp. Humidity Pressure Rain* Wind** Luminosity Snow
1787793061 18.89° C 86% 1018.6 hPa 0 mm - - -
1787792461 18.89° C 85% 1018.4 hPa 0 mm - - -
1787791861 18.89° C 84% 1018.4 hPa 0 mm - - -
1787791262 18.89° C 83% 1018.3 hPa 0 mm - - -
1787790662 19.44° C 82% 1018.1 hPa 0 mm - - -
1787790062 19.44° C 81% 1017.9 hPa 0 mm - - -
1787789462 19.44° C 80% 1017.7 hPa 0 mm - - -
1787788862 20° C 79% 1017.7 hPa 0 mm - - -
1787788262 20° C 78% 1017.6 hPa 0 mm - - -
1787787662 20° C 76% 1017.4 hPa 0 mm - - -
1787787062 20.56° C 75% 1017.4 hPa 0 mm - - -
1787786461 20.56° C 75% 1017.1 hPa 0 mm - - -
1787785861 21.11° C 74% 1017.2 hPa 0 mm - - -
1787785261 21.67° C 73% 1017.2 hPa 0 mm - - -
1787784661 21.67° C 72% 1017.2 hPa 0 mm - - -
1787784062 22.22° C 70% 1017.3 hPa 0 mm - - -
1787783462 23.33° C 67% 1017.3 hPa 0 mm - - -
1787782862 23.89° C 65% 1017.2 hPa 0 mm - - -
1787782262 24.44° C 63% 1017.1 hPa 0 mm - - -
1787781662 24.44° C 64% 1017.1 hPa 0 mm - - -
1787781062 24.44° C 63% 1017.1 hPa 0 mm - - -
1787780461 24.44° C 63% 1017.2 hPa 0 mm - - -
1787779861 25° C 62% 1017 hPa 0 mm - - -
1787779261 25° C 62% 1017.2 hPa 0 mm - - -
1787778661 25° C 62% 1017 hPa 0 mm - - -

* Rain latest hour (hover to see other rain measurements)
** Current wind speed in m/s (hover to see current wind gust speed)